map of CDR home
Great Circle Mapper logo
CDR - Airport
Location
City:  Chadron, Nebraska, United States
Name:Chadron Municipal Airport
ICAO / IATA:KCDR / CDR
FAA:CDR

Details
Type:Airport (Part 139 Class III)
Use:Public/Civil
Latitude:4250'15"N (42.837558)
Longitude:10305'43"W (-103.095401)
Datum:WGS 1984
Elevation:3297 ft (1005 m)
Variation:7.68E (WMM2015 magnetic declination)
-0.10 annual change
Runways:2
Longest:5998 × 100 ft (1828 × 30.5 m), paved

Time
Time Zone:UTC-7 (DST-6)
Local Time:

Weather
METAR:KCDR 011853Z AUTO 04003KT 10SM BKN015 M13/M17 A3035 RMK AO2 SLP351 T11281167
TAF:KCDR 011727Z 0118/0218 01009KT 5SM -SN BKN024 OVC035
FM012000 34008KT P6SM BKN035
FM020000 VRB03KT P6SM SCT250

Related Locations
Nearby:
Farthest:RRG: 10658 mi / 17152 km
Plaine Corail, Rodrigues Island, MU

Find:

   beyond  
but within

Other Information
Maps:
NOTAMs:
Links:
Sources:

  
flag of United States
flag of Nebraska
  

Sectional Chart

Flight Planning
at skyvector.com

Satellite Image

Google Maps Satellite View

 

Copyright © 2004-2015 Karl L. Swartz. All rights reserved.
The Great Circle Mapper name and logo are trademarks of the Great Circle Mapper.
All other trademarks mentioned herein belong to their respective owners.
Please see credits for attibutions and further copyright information.

  Follow gcmap on Facebook Follow gcmap on Twitter

hCard Microformat

Geo Microformat